Showing default

WINDOW CLEANER BUNDLE, 69237

Orbit data source: Space-Track

WINDOW CLEANER BUNDLE, 69237 is a Commonwealth of Independent States-origin payload satellite in LEO that was delivered to the ISS. Payload-class satellites include a variety of spacecraft equipped with specific instruments for various scientific and technological missions. These include communications satellites like Starlink; space stations such as the ISS; scientific satellites like the Hubble; Earth observation satellites from companies like Planet Labs, Umbra, and HawkEye 360; GPS; miniature CubeSats for education and research; and military/defense satellites.

Loading next visibility...
Identifier
69237, 1998-067YF
Orbit
LEO
Country
Flag of CISCIS
Related business
None
Manufacturer
Unknown
Mission
Spacecraft
Bus & Motor
Unknown
Mass
Unknown
Launch date (UTC)
1998-11-20 (28 years ago)
Launch vehicle
Unknown
Launch site
Tyuratam Missile And Space Complex (TTMTR)
Object type
Payload
Rocket body
Debris
Shape & HBR
Unknown
Radar Cross Section
RCS unknown

Expand to show TLE details & history
Last TLE update: 12 hours ago

TLE from 12 hours ago
0 WINDOW CLEANER BUNDLE
1 69237U 98067YF  26150.06356757  .00153774  00000-0  25124-2 0  9993
2 69237  51.6250  29.8015 0003948  57.4742 302.6628 15.51497777   501
Epoch: 2026-05-30T01:31Z
TLE epoch observation values (Epoch: 2026-05-30T01:31:32.238Z)
Latitude
-0.00003°
Longitude
119.33218°
Altitude
411.647 km
Speed
7.666 km/s
True Right ascension
01h 59m 12s
True Declination
0° 00' 00"
Sunlit
Object was in daylight at epoch
Visualization orbit readout
Latitude
Unknown
Longitude
Unknown
Altitude
Unknown
Speed
Unknown
Apparent Right ascension
Unknown
Apparent Declination
Unknown
Sunlit
N/A
Visualization observer readout
Local Sidereal Time
22:52:28
Azimuth
Unknown
Elevation
Unknown
Doppler factor
Unknown
Orbital elements
Apogee altitude
415.544 km
Perigee altitude
410.182 km
Semi-major axis
6,791 km
Eccentricity
0.00039
Inclination
51.625°
RAAN
29.8015°
Arg. of periapsis
57.4742°
True anomaly
302.6247°
Mean anomaly
302.6628°
Eccentric anomaly
302.64375°
Mean motion
3.87831 °/min
Orbital period
92.82 mins
BSTAR
0.0025124
Loading maneuver chart data...
Computing Atmospheric mass density...

Documentation

Showing up to 5 results
|